Aérodrome :







RETROUVEZ-NOUS SUR...

 
LOGIN :

S'inscrire | Disclaimer

   EN    FR    IT 

 









Légende :    VFR   VFR Marginal   IFR   IFR Intensif   IFR Très Intensif
Visi : 
Plafond : 
>= 8 km
>= 3000ft
5 à 8 km
1000 à 3000 ft
1500m à 5 km
500 à 1000 ft
800 à 1500m
200 à 500 ft
< 800m
< 200 ft
Symboles :   Orages  Brouillard  Fortes neiges  Fortes précipitations  Vent > 20 kt






- Altitude de l'aérodrome : 98 ft
- Code IATA : JBQ


MDJB - El Higuero

DERNIER METAR :
  • 292100Z 16008KT 9999 SCT020 SCT300 29/24 Q1012

METARs EXPIRÉS :
  • 292000Z 18010KT 9999 SCT020 SCT300 30/23 Q1013 METAR
  • 291900Z 16006KT 9999 FEW020 31/24 Q1013

TAF TAF MDJB
Valide du 29 à 18h jusqu'au 30 à 18h UTC


291600Z 2918/3018 03006KT 9999 FEW018 SCT300



MET'MAP, la Météo Aéronautique d'un coup d'oeil ! - Copyright ORBIFLY Décembre 2007 - Disclaimer

ORBIFLY MET'MAP TEAM :

Programmation & Développement : Alexandra Zaïnal
Sur une idée originale de : Baudouin d'Aumeries
Assistance à la programmation : Marc-Olivier Méhu
Soutien technique & logistique : Manuel Goepfert

Contact : metmap@orbifly.com




SOURCES & CREDITS :

   NOAA